TimeMST,TemperatureF,Dew PointF,Humidity,Sea Level PressureIn,VisibilityMPH,Wind Direction,Wind SpeedMPH,Gust SpeedMPH,PrecipitationIn,Events,Conditions,WindDirDegrees,DateUTC
12:57 AM,46.0,10.0,23,29.80,10.0,Calm,Calm,-,N/A,,Clear,0,2013-06-19 07:57:00
1:57 AM,48.9,10.9,22,29.76,10.0,SSW,4.6,-,N/A,,Clear,210,2013-06-19 08:57:00
2:57 AM,53.1,10.9,19,29.74,10.0,SW,6.9,-,N/A,,Clear,230,2013-06-19 09:57:00
3:57 AM,57.0,10.9,16,29.72,10.0,WSW,8.1,-,N/A,,Clear,240,2013-06-19 10:57:00
4:57 AM,57.0,12.0,17,29.73,10.0,WSW,9.2,-,N/A,,Clear,250,2013-06-19 11:57:00
5:57 AM,55.9,12.9,18,29.74,10.0,WSW,6.9,-,N/A,,Clear,240,2013-06-19 12:57:00
6:57 AM,62.1,16.0,17,29.74,10.0,SW,15.0,-,N/A,,Clear,220,2013-06-19 13:57:00
7:57 AM,66.0,18.0,16,29.75,10.0,SSW,20.7,26.5,N/A,,Clear,210,2013-06-19 14:57:00
8:57 AM,70.0,18.0,14,29.75,10.0,SSW,17.3,23.0,N/A,,Clear,200,2013-06-19 15:57:00
9:57 AM,73.0,16.0,11,29.77,10.0,SW,18.4,32.2,N/A,,Clear,230,2013-06-19 16:57:00
10:57 AM,73.9,18.0,12,29.79,10.0,SSW,21.9,28.8,N/A,,Clear,210,2013-06-19 17:57:00
12:57 PM,79.0,18.0,10,29.79,10.0,SW,16.1,36.8,N/A,,Clear,230,2013-06-19 19:57:00
2:57 PM,78.1,17.1,10,29.75,10.0,SSW,23.0,36.8,N/A,,Clear,210,2013-06-19 21:57:00
3:57 PM,79.0,16.0,9,29.73,10.0,SW,18.4,26.5,N/A,,Clear,220,2013-06-19 22:57:00
4:57 PM,77.0,16.0,10,29.73,10.0,SSW,18.4,33.4,N/A,,Clear,200,2013-06-19 23:57:00
6:57 PM,73.0,16.0,11,29.74,10.0,SW,19.6,27.6,N/A,,Clear,220,2013-06-20 01:57:00
7:57 PM,69.1,16.0,13,29.74,10.0,SW,12.7,-,N/A,,Clear,230,2013-06-20 02:57:00
8:57 PM,66.9,16.0,14,29.75,10.0,WSW,10.4,-,N/A,,Clear,240,2013-06-20 03:57:00
9:57 PM,64.0,15.1,15,29.76,10.0,WSW,8.1,-,N/A,,Clear,250,2013-06-20 04:57:00
10:57 PM,63.0,15.1,16,29.75,10.0,WSW,8.1,-,N/A,,Clear,250,2013-06-20 05:57:00
11:57 PM,61.0,16.0,17,29.75,10.0,WSW,5.8,-,N/A,,Clear,250,2013-06-20 06:57:00